#timestamp,LO_Frequency,Hit,StdDev 
1642046435.4,286047000.7,N
1642046455.2,286046998.2,P
1642046475.0,286047000.6,N
1642046475.9,286047000.6,N
1642046495.8,286047002.5,N
1642046515.6,286047002.6,N
1642046535.4,286047000.1,N
1642046555.3,286047000.0,N
1642046575.1,286047000.9,N
1642046595.8,286046998.8,N
1642046615.7,286047001.2,N
1642046635.5,286047000.8,N
1642046655.4,286047000.0,N
1642046675.2,286046998.1,N
1642046695.0,286046996.6,N
1642046695.9,286046996.6,N
1642046715.8,286046999.6,N
1642046735.6,286046996.7,N
1642046755.4,286046997.6,N
1642046775.3,286046996.6,N
1642046795.1,286046999.1,N
1642046815.9,286046999.1,N
1642046835.7,286046999.1,N
1642046855.5,286046999.4,N
1642046875.4,286046998.4,N
1642046895.2,286047001.0,N
1642046915.0,286046998.3,N
1642046915.9,286046998.3,N
1642046935.8,286047000.5,N
1642046955.6,286047001.2,N
1642046975.5,286047000.5,N
1642046995.3,286047002.7,N
1642047015.1,286047002.2,N
1642047035.9,286047000.7,N
1642047055.7,286046998.3,N
1642047075.5,286047000.7,N
1642047095.4,286046998.4,N
1642047115.2,286046998.1,N
1642047135.1,286047000.7,N
1642047136.0,286047000.7,N
1642047155.8,286046998.6,N
1642047175.6,286046998.9,N
1642047195.5,286046998.9,N
1642047215.3,286046998.6,N
1642047235.2,286046998.6,N
1642047255.9,286046999.1,N
1642047275.7,286046999.1,N
1642047295.6,286046996.5,N
1642047315.4,286046996.5,N
1642047335.2,286046998.3,N
1642047355.1,286046998.2,N
1642047356.0,286046998.2,N
1642047375.8,286047001.0,N
1642047395.7,286047001.2,N
1642047415.5,286046998.1,N
1642047435.3,286046999.0,N
1642047455.2,286046999.5,N
1642047475.0,286046997.2,N
1642047475.9,286046997.2,N
1642047495.8,286046999.5,N
1642047515.6,286046999.2,N
1642047535.4,286046999.0,N
1642047555.3,286046998.7,N
1642047575.1,286046999.4,N
1642047595.8,286046998.9,N
1642047615.7,286046998.5,N
1642047635.5,286047000.7,N
1642047655.4,286047000.9,N
1642047675.2,286047000.9,N
1642047695.0,286047000.9,N
1642047695.9,286047000.9,N
1642047715.8,286047000.1,N
1642047735.6,286046999.8,N
1642047755.5,286046998.3,N
1642047775.3,286046999.5,N
1642047795.1,286046999.1,N
1642047815.9,286046998.9,N
1642047835.7,286046998.5,N
1642047855.5,286046998.2,N
1642047875.4,286047000.9,N
1642047895.2,286047000.0,N
1642047915.0,286047000.1,N
1642047916.0,286047000.1,N
1642047935.8,286047002.7,N
1642047955.6,286047000.1,N
1642047975.5,286047001.9,N
1642048025.3,286047002.4,E
1642048035.3,286047000.3,N
1642048055.1,286047001.2,P
1642048056.0,286047001.2,N
1642048075.8,286046998.6,Y
1642048095.7,286046998.6,P
1642048115.5,286046999.8,N
1642048135.3,286047000.6,N
1642048155.2,286046998.2,N
1642048175.0,286046999.6,N
1642048175.9,286046999.6,N
1642048195.8,286046998.9,N
1642048215.6,286046997.0,Y
1642048235.4,286046999.3,P
1642048255.3,286046998.8,P
1642048275.1,286046998.3,P
1642048295.9,286047001.0,N
1642048315.7,286047002.6,N
1642048335.5,286047001.0,N
1642048355.4,286046998.5,N
1642048375.2,286046998.1,N
1642048395.0,286047002.4,N
1642048395.9,286047002.4,N
1642048415.8,286047001.1,N
1642048435.6,286046998.6,N
1642048455.5,286047001.0,N
1642048475.3,286047001.0,N
1642048495.1,286047000.4,N
1642048515.9,286047000.9,N
1642048535.7,286046999.6,N
1642048555.5,286046998.2,N
1642048575.4,286046999.4,N
1642048595.2,286047000.7,N
1642048615.1,286047000.8,N
1642048616.0,286047000.8,N
1642048635.8,286046999.6,N
1642048655.6,286046999.5,N
1642048675.5,286046996.5,N
1642048695.3,286046999.5,N
1642048715.1,286046999.5,N
1642048735.9,286046999.2,N
1642048755.7,286047000.9,N
1642048775.6,286047001.1,N
1642048795.4,286046996.9,N
1642048815.2,286046997.9,N
1642048835.1,286046997.8,N
1642048836.0,286046997.8,N
1642048855.8,286046997.6,N
1642048875.7,286046997.4,N
1642048895.5,286046997.0,N
1642048915.3,286046999.4,N
1642048935.2,286047000.7,N
1642048955.0,286046996.7,N
1642048955.9,286046996.7,N
1642048975.7,286046997.2,N
1642048995.6,286046997.2,N
1642049015.4,286046999.0,N
1642049035.3,286046999.6,N
1642049055.1,286046999.6,N
1642049056.0,286046999.6,N
1642049075.8,286046996.5,N
1642049095.7,286046996.8,N
1642049115.5,286046995.4,Y
1642049135.3,286046997.5,P
1642049155.2,286046997.5,P
1642049175.0,286046997.0,P
1642049175.9,286046997.0,Y
1642049195.8,286047000.0,P
1642049215.6,286046999.8,N
1642049235.4,286047002.3,N
1642049255.3,286047001.9,N
1642049275.1,286047002.6,N
1642049295.8,286046999.7,N
1642049315.7,286047003.9,N
1642049335.5,286047003.6,N
1642049355.1,286047003.1,N
1642049356.0,286047003.1,N
1642049375.8,286047004.0,N
1642049395.7,286047001.8,N
1642049415.5,286047001.7,N
1642049435.3,286047004.4,N
1642049455.2,286047004.0,N
1642049475.0,286047001.5,N
1642049475.9,286047001.5,N
1642049495.7,286047002.0,N
1642049515.6,286047000.0,N
1642049535.4,286046999.9,N
1642049555.3,286047000.3,N
1642049575.1,286047002.3,N
1642049576.0,286047002.3,N
1642049595.8,286047005.9,Y
1642049615.7,286047002.3,P
1642049635.5,286047001.7,P
1642049655.4,286047000.4,N
1642049675.2,286047000.6,N
1642049695.0,286047000.5,N
1642049695.9,286047000.5,N
1642049715.8,286047001.0,N
1642049735.6,286047000.4,N
1642049755.5,286047000.9,N
1642049775.3,286047000.0,N
1642049795.1,286046999.7,N
1642049815.9,286047002.7,Y
1642049835.7,286047000.1,P
1642049855.5,286047002.6,P
1642049875.4,286047000.1,N
1642049895.2,286047000.2,N
1642049915.1,286047000.4,N
1642049916.0,286047000.4,N
1642049935.6,286046998.2,N
1642049955.4,286047000.7,N
1642049975.3,286047000.3,N
1642049995.1,286046998.2,N
